User: anonymous   Login
Location: Nantong Television Tower
(32.0188°N, 120.8512°E)
Time: 12:57:16
(UTC+08:00)
Language:

ATLAS 3B CENTAUR R/B - Orbit

View from above orbital plane
View from above orbital plane
View from above satellite
View from above satellite

Ground track
Ground track

The orbit data is extracted from the following two-line orbital elements,

1 28118U 03057B   18053.56000737 +.00052616 -13426-5 +66989-3 0  9993
2 28118 028.1261 167.6487 2889411 297.9553 035.8442 09.70996056145146
Epoch (UTC): 22 February 2018 13:26:24
Eccentricity: 0.2889411
inclination: 28.1261°
perigee height: 221 km
apogee height: 5584 km
right ascension of ascending node: 167.6487°
argument of perigee: 297.9553°
revolutions per day: 9.70996056
mean anomaly at epoch: 35.8442°
orbit number at epoch: 14514

The dashed part of the orbit path shows where the satellite is in the earth's shadow,  

DLR